[[{"header":{"parameterUnit":"m.s-1","parameterCategory":1,"la1":30.2991,"la2":30.254,"lo1":-89.0895,"lo2":-89.0444,"dy":0.0017,"dx":0.0017,"nx":28,"ny":28,"refTime":"2023-09-15T03:00:00:Z","depth":0,"parameterNumber":2,"parameterNumberName":"U-component_of_WINDS"},"data":[0,0,0,0,0,0,0,0,0,0,0,0,0,0,0,0,0,0,0,0,0,0,0,0,0,0,0,0,0,0,0,0,0,0,0,0,0,0,0,0,0,0,0,0,0,0,0,0,0,0,0,0,0,0,0,0,0,0,-1.8041,-1.8041,0,-1.8012,-1.8012,-1.8011,-1.792,-1.7918,-1.7916,-1.7914,-1.7886,-1.7888,-1.7889,0,0,0,0,0,0,0,0,0,0,0,0,0,-1.8021,-1.8021,-1.8041,-1.8041,-1.8041,-1.8012,-1.8012,-1.8011,-1.792,-1.7918,-1.7915,-1.7913,-1.7886,-1.7887,-1.7889,0,0,0,0,0,0,0,0,0,0,0,0,0,-1.8014,-1.8022,-1.8042,-1.7992,-1.7987,-1.8012,-1.8012,-1.8011,-1.7921,-1.7918,-1.7915,-1.7912,-1.7886,-1.7887,-1.7889,-1.7961,0,0,-1.7894,-1.7895,0,0,0,0,0,0,0,0,-1.8015,-1.8015,-1.7999,-1.7995,-1.799,-1.7966,-1.7994,-1.7995,-1.7921,-1.7946,-1.7914,-1.791,-1.7916,-1.7915,-1.7916,-1.796,-1.7959,-1.7895,-1.7896,-1.7896,-1.7897,0,0,0,0,0,0,0,-1.8015,-1.8016,-1.803,-1.7999,-1.7993,-1.7971,-1.7967,-1.7994,-1.7948,-1.7944,-1.7937,-1.7934,-1.7913,-1.7915,-1.7915,-1.7958,-1.7895,-1.7896,-1.7897,-1.7898,-1.8059,-1.8062,0,0,0,0,0,0,-1.8023,-1.8017,-1.8031,-1.8029,-1.7995,-1.7974,-1.797,-1.7977,-1.7948,-1.794,-1.7937,-1.793,-1.7913,-1.7913,-1.7913,-1.7995,-1.7896,-1.7898,-1.7899,-1.8056,-1.806,-1.8063,0,0,0,0,0,0,-1.8023,-1.8025,-1.8032,-1.8021,-1.802,-1.7978,-1.7987,-1.7978,-1.798,-1.7943,-1.7935,-1.7947,-1.7911,-1.7911,-1.795,-1.7993,-1.7899,-1.79,-1.8052,-1.8057,-1.8061,-1.816,0,0,0,0,0,0,-1.8022,-1.8025,-1.8052,-1.8022,-1.8021,-1.8068,-1.799,-1.798,-1.7983,-1.7974,-1.795,-1.7944,-1.7908,-1.7947,-1.7951,-1.7994,-1.7902,-1.8048,-1.8054,-1.806,-1.8153,-1.8168,-1.8181,0,0,0,0,0,-1.8022,-1.8081,-1.8054,-1.8056,-1.8053,-1.8071,-1.807,-1.8028,-1.7987,-1.8013,-1.7989,-1.7944,-1.7988,-1.7952,-1.7956,-1.8,-1.8045,-1.8052,-1.8059,-1.8147,-1.8165,-1.818,0,0,0,0,0,0,-1.8118,-1.8077,-1.8045,-1.8097,-1.8088,-1.8055,-1.8088,-1.8049,-1.8052,-1.8043,-1.7991,-1.7987,-1.8033,-1.802,-1.7981,-1.8067,-1.8009,-1.8017,-1.8074,-1.8091,-1.8105,-1.8107,-1.7903,0,0,0,0,0,-1.8145,-1.8162,-1.8125,-1.8175,-1.8172,-1.8131,-1.8137,-1.8105,-1.8094,-1.809,-1.8068,-1.806,-1.8072,-1.8081,-1.8089,-1.8151,-1.8144,-1.8183,-1.8196,-1.8208,-1.8216,-1.8247,-1.8263,-1.8087,-1.8087,-1.8087,0,0,-1.8202,-1.8181,-1.8195,-1.8193,-1.8183,-1.8202,-1.8128,-1.8152,-1.8166,-1.8093,-1.8128,-1.8113,-1.81,-1.815,-1.8171,-1.8141,-1.8263,-1.8217,-1.8227,-1.8228,-1.8256,-1.8273,-1.8288,-1.8092,-1.8091,-1.809,0,0,-1.8314,-1.83,-1.8339,-1.833,-1.8314,-1.8286,-1.8296,-1.8269,-1.8256,-1.829,-1.8236,-1.8252,-1.8273,-1.8266,-1.8266,-1.8375,-1.8334,-1.838,-1.8452,-1.8483,-1.8497,-1.8509,-1.8548,-1.8563,-1.8388,-1.8388,-1.8388,0,-1.8387,-1.8412,-1.8365,-1.8392,-1.8392,-1.8327,-1.8366,-1.836,-1.8349,-1.8351,-1.8317,-1.8342,-1.8329,-1.8376,-1.8403,-1.8405,-1.8414,-1.8382,-1.8499,-1.851,-1.8521,-1.8557,-1.8572,-1.8393,-1.8393,-1.8392,-1.8392,0,-1.8502,-1.8521,-1.8555,-1.8544,-1.8549,-1.8582,-1.854,-1.855,-1.8518,-1.8494,-1.8529,-1.8511,-1.8515,-1.8524,-1.8493,-1.8567,-1.8549,-1.8508,-1.8448,-1.8544,-1.8578,-1.8591,-1.8401,-1.8399,-1.8398,-1.8396,0,0,-1.8675,-1.8636,-1.865,-1.8644,-1.8621,-1.8635,-1.8666,-1.8668,-1.8678,-1.8673,-1.8697,-1.8717,-1.8678,-1.8678,-1.8645,-1.8672,-1.876,-1.8628,-1.8627,-1.8653,-1.8841,-1.8871,-1.8888,-1.8733,-1.8735,-1.8737,-1.8841,0,-1.8781,-1.8829,-1.8787,-1.8844,-1.8861,-1.8799,-1.8825,-1.8815,-1.8794,-1.8805,-1.8782,-1.8796,-1.8744,-1.8744,-1.8768,-1.8744,-1.8797,-1.8736,-1.8755,-1.8756,-1.876,-1.8906,-1.8938,-1.9038,-1.8854,-1.8856,-1.8858,0,-1.8911,-1.891,-1.8969,-1.8942,-1.8947,-1.8972,-1.897,-1.8982,-1.897,-1.8952,-1.8951,-1.8911,-1.894,-1.8881,-1.892,-1.888,-1.8885,-1.8875,-1.8877,-1.8877,-1.8813,-1.891,-1.9069,-1.9084,-1.8878,-1.8877,-1.8875,0,-1.9031,-1.9044,-1.9081,-1.9078,-1.9047,-1.9066,-1.9055,-1.9038,-1.9043,-1.9042,-1.9044,-1.9048,-1.9049,-1.9053,-1.9015,-1.8976,-1.9059,-1.8997,-1.9046,-1.9047,-1.9066,-1.9065,-1.9228,-1.907,-1.907,-1.9069,-1.9069,0,-1.9154,-1.9192,-1.9134,-1.9156,-1.9197,-1.9148,-1.9191,-1.9173,-1.9159,-1.9177,-1.9124,-1.9143,-1.9092,-1.9105,-1.9076,-1.9113,-1.9114,-1.9101,-1.9093,-1.9106,-1.9107,-1.9108,-1.91,-1.9073,-1.9072,-1.9072,-1.9071,0,-1.9294,-1.9257,-1.9292,-1.926,-1.9253,-1.9285,-1.9258,-1.9278,-1.9253,-1.9277,-1.9279,-1.924,-1.9253,-1.9216,-1.9224,-1.9204,-1.9257,-1.9238,-1.9261,-1.9255,-1.9305,-1.9301,-1.9474,-1.9494,-1.9324,-1.9326,-1.9327,0,-1.9375,-1.9402,-1.9373,-1.9381,-1.9372,-1.9386,-1.9389,-1.9343,-1.9349,-1.9336,-1.9358,-1.9366,-1.937,-1.9394,-1.9367,-1.9373,-1.9353,-1.9413,-1.9353,-1.9365,-1.9353,-1.9352,-1.9355,-1.9426,-1.9428,-1.9429,-1.9431,0,-1.9522,-1.9502,-1.9508,-1.9509,-1.9514,-1.9512,-1.9507,-1.9517,-1.9467,-1.9477,-1.9489,-1.9492,-1.9499,-1.9508,-1.9508,-1.9497,-1.9456,-1.945,-1.9461,-1.9474,-1.9487,-1.948,-1.9294,-1.9446,-1.9444,-1.9443,-1.9443,-1.9442,-1.9635,-1.9656,-1.9638,-1.9648,-1.9638,-1.9635,-1.9651,-1.9628,-1.9637,-1.9638,-1.961,-1.9628,-1.9615,-1.9609,-1.9603,-1.9616,-1.9589,-1.9605,-1.961,-1.9614,-1.9623,-1.9485,-1.9616,-1.9616,-1.9615,-1.9615,-1.9615,0,-1.9779,-1.9764,-1.9773,-1.9766,-1.9774,-1.9733,-1.9725,-1.9734,-1.975,-1.9741,-1.9745,-1.9759,-1.9768,-1.9742,-1.9746,-1.9763,-1.9744,-1.9765,-1.9764,-1.9762,-1.9647,-1.9637,-1.978,-1.978,-1.978,-1.978,-1.978,-1.978,-1.9854,-1.9888,-1.9866,-1.9895,-1.988,-1.9896,-1.9895,-1.9892,-1.9883,-1.9901,-1.9907,-1.9889,-1.9873,-1.9876,-1.9883,-1.9874,-1.9879,-1.9907,-1.9893,-1.9786,-1.977,-1.9754,-1.9744,-1.9908,-1.9908,-2.0006,-2.0007,-2.0007]},{"header":{"parameterUnit":"m.s-1","parameterCategory":1,"la1":30.2991,"la2":30.254,"lo1":-89.0895,"lo2":-89.0444,"dy":0.0017,"dx":0.0017,"nx":28,"ny":28,"refTime":"2023-09-15T03:00:00:Z","depth":0,"parameterNumber":3,"parameterNumberName":"V-component_of_WINDS"},"data":[0,0,0,0,0,0,0,0,0,0,0,0,0,0,0,0,0,0,0,0,0,0,0,0,0,0,0,0,0,0,0,0,0,0,0,0,0,0,0,0,0,0,0,0,0,0,0,0,0,0,0,0,0,0,0,0,0,0,-2.4829,-2.4829,0,-2.4904,-2.4905,-2.4906,-2.493,-2.4929,-2.4929,-2.4929,-2.5,-2.5003,-2.5005,0,0,0,0,0,0,0,0,0,0,0,0,0,-2.4698,-2.47,-2.4828,-2.4829,-2.483,-2.4904,-2.4905,-2.4906,-2.493,-2.4929,-2.4929,-2.4929,-2.5,-2.5002,-2.5005,0,0,0,0,0,0,0,0,0,0,0,0,0,-2.4762,-2.4701,-2.4828,-2.4851,-2.4854,-2.4904,-2.4905,-2.4906,-2.493,-2.4929,-2.4929,-2.4928,-2.4999,-2.5002,-2.5005,-2.5036,0,0,-2.5016,-2.5017,0,0,0,0,0,0,0,0,-2.4759,-2.4767,-2.4847,-2.485,-2.4853,-2.4907,-2.4886,-2.495,-2.493,-2.4901,-2.4929,-2.4928,-2.4969,-2.4975,-2.499,-2.504,-2.5043,-2.5016,-2.5018,-2.5019,-2.502,0,0,0,0,0,0,0,-2.4754,-2.4764,-2.4858,-2.4848,-2.4852,-2.4856,-2.4864,-2.4898,-2.4937,-2.4903,-2.4905,-2.4914,-2.4971,-2.4987,-2.4992,-2.5044,-2.5016,-2.5019,-2.5021,-2.5022,-2.512,-2.5121,0,0,0,0,0,0,-2.4747,-2.476,-2.4856,-2.4861,-2.4804,-2.4858,-2.4868,-2.489,-2.4937,-2.4943,-2.4915,-2.4915,-2.4982,-2.4988,-2.4995,-2.5033,-2.5019,-2.5022,-2.5024,-2.512,-2.5121,-2.5121,0,0,0,0,0,0,-2.4744,-2.4755,-2.4853,-2.4811,-2.4824,-2.4861,-2.4886,-2.4892,-2.4908,-2.4945,-2.4952,-2.4924,-2.4981,-2.499,-2.5026,-2.5036,-2.5024,-2.5027,-2.5119,-2.512,-2.5121,-2.5111,0,0,0,0,0,0,-2.474,-2.4754,-2.4767,-2.4811,-2.4826,-2.4884,-2.4887,-2.4894,-2.4914,-2.4916,-2.4956,-2.4962,-2.4982,-2.5021,-2.5029,-2.504,-2.503,-2.5118,-2.512,-2.5121,-2.511,-2.5111,-2.5112,0,0,0,0,0,-2.4735,-2.4761,-2.4768,-2.4779,-2.4844,-2.4885,-2.4893,-2.4917,-2.4915,-2.4928,-2.4952,-2.4961,-2.5034,-2.5024,-2.5034,-2.5046,-2.5118,-2.5119,-2.5121,-2.511,-2.5111,-2.5112,0,0,0,0,0,0,-2.4715,-2.4767,-2.4776,-2.4816,-2.4846,-2.4889,-2.4906,-2.4918,-2.4947,-2.4947,-2.4973,-2.4982,-2.5016,-2.5034,-2.5023,-2.5078,-2.5076,-2.5079,-2.5064,-2.5066,-2.5066,-2.5061,-2.5032,0,0,0,0,0,-2.4716,-2.4747,-2.4789,-2.4821,-2.4836,-2.4868,-2.4887,-2.4903,-2.4934,-2.4947,-2.4973,-2.5001,-2.5031,-2.5049,-2.5078,-2.5113,-2.5121,-2.5126,-2.5127,-2.5127,-2.513,-2.5148,-2.515,-2.5126,-2.5126,-2.5126,0,0,-2.4717,-2.4749,-2.4767,-2.4818,-2.4843,-2.4873,-2.4879,-2.491,-2.4932,-2.4951,-2.4987,-2.5007,-2.504,-2.5075,-2.5092,-2.5092,-2.5138,-2.5129,-2.5129,-2.5131,-2.515,-2.5152,-2.5154,-2.5127,-2.5126,-2.5126,0,0,-2.4734,-2.4762,-2.4791,-2.4816,-2.4855,-2.4876,-2.4883,-2.4924,-2.4939,-2.4976,-2.499,-2.5015,-2.5065,-2.5088,-2.5106,-2.5131,-2.514,-2.514,-2.5144,-2.5161,-2.5163,-2.5165,-2.5173,-2.5175,-2.5142,-2.5142,-2.5142,0,-2.473,-2.4777,-2.4804,-2.4835,-2.4856,-2.4876,-2.4905,-2.4927,-2.4972,-2.4986,-2.4985,-2.5048,-2.5072,-2.5112,-2.5119,-2.5133,-2.514,-2.5135,-2.5161,-2.5163,-2.5165,-2.5173,-2.5176,-2.5142,-2.5142,-2.5142,-2.5142,0,-2.477,-2.4802,-2.482,-2.4865,-2.4889,-2.4918,-2.4947,-2.4967,-2.498,-2.5001,-2.5037,-2.5067,-2.5101,-2.5112,-2.5125,-2.5154,-2.5152,-2.5156,-2.5155,-2.5167,-2.5174,-2.5178,-2.5141,-2.5141,-2.5141,-2.5141,0,0,-2.4776,-2.4836,-2.4842,-2.4862,-2.4906,-2.4931,-2.496,-2.4996,-2.5012,-2.5042,-2.5065,-2.5107,-2.5111,-2.5132,-2.5147,-2.5162,-2.5179,-2.5164,-2.5165,-2.5165,-2.5211,-2.5207,-2.521,-2.5185,-2.5186,-2.5186,-2.5208,0,-2.4798,-2.4854,-2.4878,-2.4922,-2.4951,-2.497,-2.4995,-2.5023,-2.5043,-2.5069,-2.509,-2.5119,-2.5122,-2.5135,-2.5151,-2.5173,-2.5188,-2.5172,-2.5206,-2.5207,-2.5196,-2.5215,-2.5211,-2.523,-2.5211,-2.5212,-2.5212,0,-2.4832,-2.4864,-2.491,-2.495,-2.4963,-2.4985,-2.502,-2.5045,-2.5077,-2.509,-2.5113,-2.5127,-2.5156,-2.5153,-2.5193,-2.5181,-2.5196,-2.5209,-2.521,-2.5214,-2.521,-2.5218,-2.5237,-2.5239,-2.5217,-2.5217,-2.5216,0,-2.483,-2.4885,-2.492,-2.4937,-2.4984,-2.4999,-2.5019,-2.5051,-2.507,-2.5099,-2.5112,-2.5143,-2.516,-2.5183,-2.5205,-2.5201,-2.5242,-2.5241,-2.5252,-2.5252,-2.526,-2.5259,-2.5281,-2.527,-2.527,-2.527,-2.527,0,-2.4852,-2.488,-2.492,-2.4941,-2.4972,-2.4999,-2.5028,-2.5049,-2.5077,-2.5101,-2.5119,-2.514,-2.5169,-2.5193,-2.521,-2.524,-2.5247,-2.5257,-2.5261,-2.5255,-2.5254,-2.5265,-2.5264,-2.5271,-2.5271,-2.5271,-2.527,0,-2.4856,-2.4885,-2.4924,-2.4966,-2.4977,-2.4997,-2.5032,-2.5052,-2.5073,-2.5103,-2.5112,-2.5143,-2.5173,-2.5198,-2.5236,-2.5248,-2.5278,-2.5283,-2.5268,-2.527,-2.528,-2.5278,-2.5309,-2.5314,-2.5301,-2.5301,-2.5301,0,-2.4868,-2.489,-2.4934,-2.4953,-2.4973,-2.5002,-2.5023,-2.5049,-2.5069,-2.5107,-2.5122,-2.5154,-2.5181,-2.5227,-2.5252,-2.5282,-2.5287,-2.5296,-2.5291,-2.5284,-2.5286,-2.5284,-2.5286,-2.5296,-2.5296,-2.5296,-2.5296,0,-2.4885,-2.4898,-2.4928,-2.4963,-2.4987,-2.5015,-2.5043,-2.5057,-2.5088,-2.511,-2.5142,-2.5162,-2.5203,-2.5233,-2.5265,-2.5283,-2.5294,-2.5297,-2.5301,-2.5295,-2.5285,-2.529,-2.5268,-2.5296,-2.5296,-2.5296,-2.5296,-2.5296,-2.4893,-2.4913,-2.4947,-2.498,-2.5004,-2.503,-2.5051,-2.5075,-2.5103,-2.5139,-2.5152,-2.5184,-2.5214,-2.5258,-2.5277,-2.5301,-2.5302,-2.5308,-2.5309,-2.531,-2.5309,-2.5282,-2.5307,-2.5307,-2.5307,-2.5307,-2.5307,0,-2.491,-2.4933,-2.4963,-2.5003,-2.5028,-2.5038,-2.507,-2.5089,-2.5118,-2.5146,-2.5172,-2.5208,-2.5237,-2.5265,-2.5295,-2.5309,-2.5315,-2.5316,-2.5315,-2.5319,-2.5307,-2.53,-2.5311,-2.5311,-2.5311,-2.5311,-2.5311,-2.5311,-2.4922,-2.4956,-2.4973,-2.5019,-2.5041,-2.5075,-2.5092,-2.5115,-2.5137,-2.5177,-2.5203,-2.5221,-2.5248,-2.5281,-2.5308,-2.5315,-2.5325,-2.5325,-2.5333,-2.5321,-2.532,-2.5319,-2.5313,-2.5327,-2.5327,-2.5343,-2.5343,-2.5343]}]]